sat.trackr.live / text

‹ back to catalog

STARLINK-38031

NORAD 69827 · 2026-154J

PAYLOAD ACTIVE UNKNOWN

§ Identity

Operator
Country
US
Launch date
2026-07-05
Launch site
AFETR
Launch vehicle
Mass (kg)
RCS (m²)

Purposes: comms

External: N2YO · Heavens-Above · Gunter

§ Orbital elements

Epoch: 2026-09-19T18:30:22.483584Z

Period
93.85 min
Inclination
53.1551°
Eccentricity
0.0001120
Mean motion
15.34390961 rev/d
Perigee alt
462.0 km
Apogee alt
463.5 km
Semi-major
6,840.9 km
B*
2.8782e-4
RAAN
335.3293°
Arg perigee
70.5617°
Mean anomaly
289.5507°
Rev number
1,312

§ Raw data

STARLINK-380311 69827U 26154J   26262.77109356  .00009358  00000+0  28782-3 0  99902 69827  53.1551 335.3293 0001120  70.5617 289.5507 15.34390961 13126

JSON: /api/v1/satellites/69827 · /tle

For live sub-satellite position, see the globe view (requires WebGL).

§ Visibility from observer

Set your observer location to see the next 7 days of passes ≥ 10°. The values pass through the URL so the page stays shareable.

No JS? Fill the form by hand. The geolocation button needs JavaScript.